Location: Freemans Gardens
(41.6414°N, 83.6077°W)
Time: 03:47:26
(UTC+00:00)

Cosmos 1825 - Pass Details

Date: 29 October 2020
Orbit: 502 x 508 km, 82.5° (Epoch: 26 November)

Event Time Altitude Azimuth Distance (km) Brightness Sun altitude
Rises 23:30:38 0° 6° (N) 2,620 5.6 -11.5°
Reaches altitude 10° 23:33:09 10° 23° (NNE) 1,728 4.6 -11.9°
Maximum altitude 23:36:06 21° 74° (ENE) 1,169 3.4 -12.5°
Enters shadow 23:36:54 20° 93° (E) 1,218 3.4 -12.6°
